Погода в Тайшете

Погода в Тайшете : погода сейчас, прогноз погоды и архив. Всё, что Вы хотите узнать о погоде в Тайшете!

Хотите узнать прогноз погоды в Тайшете? Тогда Вам сюда: Погода в Тайшете

Поиск расширенной информации на нашем сайте:

Другие новости

Новости СМИ2

Главная страница сайта

Новости сайта

03.07.2017

Напоминаем, что на нашем специализированном сайте Метеоцентр.Азия вы можете получить высокодетализированные автоматические прогнозы погоды по пунктам России, СНГ и мира в авиационном формате (включающие направление и скорость ветра, видимость, явления погоды, количество и форму облачности, нижнюю и верхнюю границу облачности).


Погода в Тайшете - сегодня

Время (UTC), дата Ветер
(°,м/с) 
Видим.   Явления Облачность Т
(°С)
Тd
(°С)
f(%) Тe
(°С)
Pmin
(гПа)
dP
(гПа)
Po
(мм)
O2
(г/м3)
Тmin Tmax R s Состояние
почвы
12 12.08.18 120 (ЮВ) 3{10}  20000 м    8/0 верхняя 
[Ci]
+29.7 +12.9 36 +36  992.8  -0.5  719  259    +33.6       
15 12.08.18 140 (ЮВ) н/о    10/3 1000 м средняя, верхняя 
[Sc|Ac lent|Cs]
+25.5 +14.3 50 +34  993.7  0.4  720  262           
18 12.08.18 270 (З) 3{13}  н/о    10/3 1000 м средняя, верхняя 
[Sc|Ac trans|Cs]
+20.5 +15.3 72 +31  998.7  4.3  723  268           
21 12.08.18 280 (З) 5{11}  н/о    10/8 600 м кучево-дожд., средняя, верхняя 
[Cb cap|Ac trans|Cs]
+18 +14.3 79 +26  1001.7  2.6  725  271           
00 13.08.18 280 (З) 20000 м    10/10 600 м кучево-дожд. 
[Cb cap]
+16.7 +12.6 77 +23  1004.6  2.6  727  274  +16.7        сухая 
06 13.08.18 260 (З) 10 км  ливневой дождь  10/9 600 м кучево-дожд., средняя, верхняя 
[Cb cap|Ac trans|Ci fib]
+15.1 +13.5 90 +23  1008.4  1.8  730  276           
09 13.08.18 340 (С) 20000 м  {ливн. осадки}  10/8 600 м кучево-дожд., средняя, верхняя 
[Cb cap|Ac trans|Ci fib]
+17.6 +14.3 81 +26  1008.7  0.5  730  273           
12 13.08.18 090 (В) 20000 м  {ливн. осадки}  10/4 600 м кучево-дожд., средняя, верхняя 
[Cb cap|Ac lent|Cs]
+17 +14.1 83 +26  1009.9  1.1  731  274    +17.8     
15 13.08.18 260 (З) н/о    10/6 600 м кучево-дожд., средняя, верхняя 
[Cb cap|Ac lent|Cs]
+15 +13.8 93 +23  1011  0.9  731  277           
18 13.08.18 тихо ()   н/о    8/3 1000 м верхняя 
[Sc|Ci fib]
+12.2 +11.8 97 +16  1012  0.6  732  280           
21 13.08.18 290 (З) н/о  туман  6/0 верхняя 
[Cs]
+12.1 +11.8 98 +17  1012.5  0.5  732  280           
00 14.08.18 280 (З) 4000 м  дымка{туман}  10/5 1000 м средняя, верхняя 
[Sc|Ac trans|Cs]
+12 +11.7 98 +17  1013.2  0.6  733  280  +11.1        влажная 
03 14.08.18 030 (СВ) 20000 м    10/10 600 м кучево-дожд. 
[Cb cap]
+15.1 +12 82 +20  1014    733  278           
06 14.08.18 330 (СЗ) 20000 м    10/4 1000 м верхняя 
[Sc|Cs]
+15.8 +8.4 61 +16  1013.5  -0.4  733  278           
09 14.08.18 320 (СЗ) 20000 м    10/3 1000 м верхняя 
[Sc|Cs]
+15.5 +9.1 66 +16  1014.1  0.6  734  278           
12 14.08.18 290 (З) 20000 м  слаб. ливневой дождь  10/10 600 м кучево-дожд. 
[Cb cap]
+13.8 +10.5 80 +16  1014.5  0.1  734  279    +16.3  0.0     
15 14.08.18 270 (З) н/о  {ливн. осадки}  10/10 600 м кучево-дожд. 
[Cb cap]
+12.9 +10.5 85 +15  1014.3  -0.3  733  280           
18 14.08.18 280 (З) н/о  ливневой дождь  10/10 600 м кучево-дожд. 
[Cb cap]
+11.9 +10.2 89 +14  1013.6  -0.8  733  281           
21 14.08.18 260 (З) н/о  ливневой дождь  10/10 600 м кучево-дожд. 
[Cb cap]
+11.1 +9.8 92 +12  1012.5  -1.2  732  282           
00 15.08.18 280 (З) н/о    н/о 
+11.4 +9.3 87 +12  1012.8  0.3  732  281  +11         
06 15.08.18 270 (З) 5{11}  20000 м    10/8 600 м кучево-дожд., средняя, верхняя 
[Cb cap|Ac trans|Cs]
+15 +8.4 65 +15  1013.7  0.8  733  279           
09 15.08.18 290 (З) 6{11}  20000 м    10/8 600 м кучево-дожд., средняя, верхняя 
[Cb cap|Ac trans|Ci fib]
+18.6 +7.2 47 +19  1014.2  0.8  734  276           
12 15.08.18 210 (ЮЗ) 2{10}  20000 м    10/6 600 м кучево-дожд., средняя, верхняя 
[Cb cap|Ac trans|Cs]
+16.5 +9.3 62 +18  1015.1  0.6  734  277    +18.8       
15 15.08.18 250 (З) н/о    н/о 
+15.7 +8.6 63 +16  1015.2  734  278           
18 15.08.18 260 (З) н/о    10/8 600 м кучево-дожд., средняя, верхняя 
[Cb cap|Ac trans|Ci fib]
+15.1 +7.8 62 +15  1014.9  -0.4  734  279           
Время (UTC), дата Ветер
(°,м/с) 
Видим.   Явления Облачность Т
(°С)
Тd
(°С)
f(%) Тe
(°С)
Pmin
(гПа)
dP
(гПа)
Po
(мм)
O2
(г/м3)
Тmin Tmax R s Состояние
почвы

Для получения пояснительной информации подведите курсор к названию столбца.

ПОГОДА в Тайшете - архив

Всё, что Вы хотите узнать о погоде в Тайшете - удобно и подробно!

Выберите нужную дату (начиная с 1 января 2015* года) и нажмите кнопку "Найти".
Будут отображены архивные сводки погоды по пункту Тайшет, начиная с указанной даты.


Отображать данные в формате CSV (для использования в таблицах Excel)


Внимание! Наш архив погоды предназначен исключительно для личного некоммерческого использования в познавательных целях. Если Вам необходимы официальные справки о состоянии погоды (для производственных, юридических, коммерческих и т.п. целей), обращайтесь в органы Росгидромета.

*Примечание: данная дата относится к архиву по метеостанциям СССР (Россия, СНГ, Балтия).
Архив по метеостанциям Зарубежной Европы и Азии (кроме Китая) хранится 10 дней, по другим регионам земного шара (Китай, Африка, Америка, Австралия, Океания) - 1 день.

Тайшет - район местоположения метеостанции


Название, широта, долгота, высота метеостанции:
Тайшет 55.9°ш. 98°д. 307 м над ур. моря [Российская Федерация]

Дополнительная информация

В oтличие oт бoльшинства пoгoдных сайтoв мы публикуем пoдрoбную метеoинфoрмацию в детальнoм прoфессиoнальнoм фoрмате.

Характеристики температуры и влажнoсти вoздуха измеряются на высoте 2 м в тени вдали oт зданий и деревьев.
Скoрoсть ветра измеряется на высoте 10 м (на урoвне рoста челoвека скoрoсть ветра ниже в 1.5-2 раза). Если метеoстанция нахoдится в гoрoде или в лесу, тo скoрoсть ветра занижена на 2-4 м/с пo сравнению с oткрытым местoм. Скoрoсть ветра над акватoриями крупных рек и oзёр, а также на вершинах хoлмoв на 2-5 м/с выше, чем в oбычных услoвиях.
Атмoсфернoе давление в разных тoчках местнoсти мoжет значительнo oтличаться oт давления на метеoстанции, в зависимoсти oт услoвий рельефа (при пoдъёме на 10 м давление пoнижается примернo на 1 мм рт.ст.).